FW4132 Weather Reports


Display with metric or nautical units.
time (UTC)temp
F
wind
direction
speed
MPH
gust
MPH
rain 1hr
in
rain 24hr
in
rain mn
in
humidity
%
barometer
mb
20260506182502 67 280 3.0 7.0 0.00 0.00 0.00 38 1015.5
20260506182003 67 300 2.0 4.0 0.00 0.00 0.00 39 1015.5
20260506181754 67 286 1.0 4.0 0.00 0.00 0.00 40 1016.8
20260506181509 67 303 1.0 4.0 0.00 0.00 0.00 41 1016.7
20260506181503 67 280 1.0 3.0 0.00 0.00 0.00 40 1015.4
20260506181006 66 299 2.0 6.0 0.00 0.00 0.00 41 1016.7
20260506181003 66 303 1.0 4.0 0.00 0.00 0.00 39 1015.4
20260506180504 66 300 1.0 6.0 0.00 0.00 0.00 40 1015.4
20260506180236 66 238 2.0 6.0 0.00 0.00 0.00 40 1016.7
20260506180011 65 291 1.0 6.0 0.00 0.00 0.00 42 1015.3
20260506175731 65 283 2.0 6.0 0.00 0.00 0.00 43 1016.7
20260506175502 65 310 2.0 6.0 0.00 0.00 0.00 41 1015.4
20260506175223 65 277 2.0 6.0 0.00 0.00 0.00 45 1016.7
20260506175004 65 304 2.0 6.0 0.00 0.00 0.00 45 1015.5
20260506174718 65 260 2.0 6.0 0.00 0.00 0.00 44 1016.8
20260506174511 64 260 2.0 6.0 0.00 0.00 0.00 44 1015.5
20260506174004 64 308 1.0 7.0 0.00 0.00 0.00 47 1015.6
20260506173705 64 313 3.0 7.0 0.00 0.00 0.00 46 1017.1
20260506173503 63 237 3.0 7.0 0.00 0.00 0.00 46 1015.5
20260506173159 64 321 3.0 7.0 0.00 0.00 0.00 46 1017.2
20260506173006 63 280 3.0 6.0 0.00 0.00 0.00 47 1015.6
20260506172654 63 240 3.0 7.0 0.00 0.00 0.00 46 1017.2
20260506172504 63 246 2.0 7.0 0.00 0.00 0.00 48 1015.6
20260506172148 63 244 3.0 7.0 0.00 0.00 0.00 49 1017.2
20260506172002 62 243 3.0 7.0 0.00 0.00 0.00 49 1015.5
20260506171908 63 265 3.0 9.0 0.00 0.00 0.00 50 1017.1
20260506171503 62 238 3.0 9.0 0.00 0.00 0.00 49 1015.6
20260506171356 63 290 3.0 9.0 0.00 0.00 0.00 49 1017.1
20260506171004 62 272 4.0 9.0 0.00 0.00 0.00 49 1015.7
20260506170631 62 284 4.0 8.0 0.00 0.00 0.00 49 1017.2
20260506170503 62 284 3.0 8.0 0.00 0.00 0.00 48 1015.7
20260506170124 62 239 4.0 8.0 0.00 0.00 0.00 49 1017.1
20260506170005 62 287 2.0 8.0 0.00 0.00 0.00 49 1015.7
20260506165618 62 268 3.0 8.0 0.00 0.00 0.00 49 1016.9
20260506165505 62 278 3.0 8.0 0.00 0.00 0.00 49 1015.6
20260506165003 62 299 1.0 6.0 0.00 0.00 0.00 49 1015.6
20260506164827 62 307 3.0 8.0 0.00 0.00 0.00 49 1017.1
20260506164505 62 307 2.0 8.0 0.00 0.00 0.00 48 1015.6
20260506164100 62 276 3.0 8.0 0.00 0.00 0.00 48 1017.2
20260506164004 61 301 3.0 8.0 0.00 0.00 0.00 48 1015.7
20260506163554 62 315 3.0 6.0 0.00 0.00 0.00 49 1017.2
20260506163503 62 279 2.0 6.0 0.00 0.00 0.00 48 1015.6
20260506163048 62 319 2.0 6.0 0.00 0.00 0.00 49 1017.1
20260506163011 61 278 2.0 6.0 0.00 0.00 0.00 48 1015.5
20260506162542 62 298 2.0 5.0 0.00 0.00 0.00 49 1017.1
20260506162502 61 299 2.0 5.0 0.00 0.00 0.00 49 1015.6
20260506162036 62 315 3.0 6.0 0.00 0.00 0.00 49 1017.2
20260506162005 61 298 2.0 6.0 0.00 0.00 0.00 50 1015.6
20260506161530 61 306 2.0 6.0 0.00 0.00 0.00 49 1017.2
20260506161512 61 309 2.0 6.0 0.00 0.00 0.00 48 1015.7
20260506161024 61 287 2.0 6.0 0.00 0.00 0.00 48 1017.2
20260506161003 61 284 2.0 6.0 0.00 0.00 0.00 47 1015.6
20260506160518 61 305 2.0 6.0 0.00 0.00 0.00 46 1017.1
20260506160502 61 305 2.0 6.0 0.00 0.00 0.00 46 1015.6
20260506160011 61 281 2.0 4.0 0.00 0.00 0.00 47 1017.1
20260506160003 60 281 2.0 4.0 0.00 0.00 0.00 47 1015.5
20260506155506 60 294 2.0 4.0 0.00 0.00 0.00 46 1016.9
20260506155502 60 294 2.0 4.0 0.00 0.00 0.00 45 1015.5
20260506155003 60 298 2.0 4.0 0.00 0.00 0.00 46 1015.5
20260506155000 60 298 1.0 4.0 0.00 0.00 0.00 47 1017.1
20260506154504 59 254 0.0 3.0 0.00 0.00 0.00 48 1015.5
20260506154454 60 254 1.0 3.0 0.00 0.00 0.00 49 1017.1
20260506154004 59 247 0.0 3.0 0.00 0.00 0.00 50 1015.5
20260506153948 59 247 1.0 3.0 0.00 0.00 0.00 50 1017.1
20260506153501 58 299 1.0 4.0 0.00 0.00 0.00 49 1015.6
20260506153206 58 283 2.0 4.0 0.00 0.00 0.00 51 1017.2
20260506153003 58 252 1.0 4.0 0.00 0.00 0.00 51 1015.7
20260506152504 58 288 2.0 4.0 0.00 0.00 0.00 51 1015.8
20260506152438 58 288 2.0 4.0 0.00 0.00 0.00 52 1017.3
20260506152006 57 307 2.0 5.0 0.00 0.00 0.00 52 1015.8
20260506151938 57 307 2.0 5.0 0.00 0.00 0.00 54 1017.4
20260506151505 56 275 1.0 5.0 0.00 0.00 0.00 56 1015.9
20260506151438 56 276 2.0 5.0 0.00 0.00 0.00 56 1017.2
20260506151004 54 284 2.0 4.0 0.00 0.00 0.00 60 1015.9
20260506150937 55 277 1.0 3.0 0.00 0.00 0.00 60 1017.3
20260506150504 53 294 0.0 4.0 0.00 0.00 0.00 66 1016.0
20260506150014 51 294 1.0 4.0 0.00 0.00 0.00 68 1015.8
20260506145937 51 294 1.0 4.0 0.00 0.00 0.00 69 1017.2
20260506145501 48 278 1.0 4.0 0.00 0.00 0.00 73 1015.9
20260506145438 48 278 0.0 4.0 0.00 0.00 0.00 77 1017.2
20260506145003 46 296 0.0 0.0 0.00 0.00 0.00 88 1015.7
20260506144939 46 296 0.0 0.0 0.00 0.00 0.00 90 1017.1
20260506144706 46 293 0.0 0.0 0.00 0.00 0.00 93 1016.9
20260506144516 45 293 0.0 0.0 0.00 0.00 0.00 92 1015.7
20260506144002 44 293 0.0 0.0 0.00 0.00 0.00 94 1015.6
20260506143935 45 292 0.0 0.0 0.00 0.00 0.00 94 1016.8
20260506143502 44 296 0.0 0.0 0.00 0.00 0.00 94 1015.5
20260506143435 44 296 0.0 0.0 0.00 0.00 0.00 94 1016.9
20260506143015 43 297 0.0 0.0 0.00 0.00 0.00 94 1015.5
20260506142934 44 297 0.0 0.0 0.00 0.00 0.00 95 1016.8
20260506142503 43 296 0.0 0.0 0.00 0.00 0.00 94 1015.5
20260506142435 43 296 0.0 0.0 0.00 0.00 0.00 95 1016.9
20260506142003 43 296 0.0 0.0 0.00 0.00 0.00 94 1015.6
20260506141935 43 296 0.0 0.0 0.00 0.00 0.00 94 1016.9
20260506141511 42 296 0.0 0.0 0.00 0.00 0.00 93 1015.5
20260506141434 42 296 0.0 0.0 0.00 0.00 0.00 94 1016.9
20260506141006 42 296 0.0 0.0 0.00 0.00 0.00 92 1015.5
20260506140935 42 296 0.0 0.0 0.00 0.00 0.00 93 1016.9
20260506140503 42 298 0.0 0.0 0.00 0.00 0.00 92 1015.4
20260506140434 42 298 0.0 0.0 0.00 0.00 0.00 93 1016.8
20260506140006 41 298 0.0 0.0 0.00 0.00 0.00 92 1015.5
20260506135934 42 298 0.0 0.0 0.00 0.00 0.00 92 1016.9
20260506135656 41 298 0.0 0.0 0.00 0.00 0.00 92 1016.9
20260506135505 41 298 0.0 0.0 0.00 0.00 0.00 91 1015.4
20260506135006 41 298 0.0 0.0 0.00 0.00 0.00 91 1015.4
20260506134933 41 298 0.0 0.0 0.00 0.00 0.00 92 1016.8
20260506134506 41 298 0.0 0.0 0.00 0.00 0.00 91 1015.5
20260506134434 41 298 0.0 0.0 0.00 0.00 0.00 91 1016.8
20260506134005 41 298 0.0 0.0 0.00 0.00 0.00 91 1015.5
20260506133935 41 298 0.0 0.0 0.00 0.00 0.00 91 1016.8
20260506133505 40 298 0.0 0.0 0.00 0.00 0.00 90 1015.5
20260506133434 41 298 0.0 0.0 0.00 0.00 0.00 91 1016.8
20260506133018 40 298 0.0 0.0 0.00 0.00 0.00 90 1015.5
20260506132934 41 298 0.0 0.0 0.00 0.00 0.00 91 1016.8
20260506132502 40 298 0.0 0.0 0.00 0.00 0.00 90 1015.4
20260506132434 41 298 0.0 0.0 0.00 0.00 0.00 90 1016.7
20260506132002 40 298 0.0 0.0 0.00 0.00 0.00 89 1015.4
20260506131934 41 298 0.0 0.0 0.00 0.00 0.00 90 1016.7
20260506131510 40 298 0.0 0.0 0.00 0.00 0.00 89 1015.3
20260506131433 41 298 0.0 0.0 0.00 0.00 0.00 89 1016.7
20260506131007 40 298 0.0 0.0 0.00 0.00 0.00 89 1015.3
20260506130927 41 298 0.0 0.0 0.00 0.00 0.00 89 1016.7
20260506130503 40 298 0.0 0.0 0.00 0.00 0.00 89 1015.2
20260506130422 41 298 0.0 0.0 0.00 0.00 0.00 89 1016.6
20260506130014 40 298 0.0 0.0 0.00 0.00 0.00 89 1015.2
20260506125920 41 298 0.0 0.0 0.00 0.00 0.00 89 1016.7
20260506125506 40 298 0.0 0.0 0.00 0.00 0.00 89 1015.2
20260506125420 41 298 0.0 0.0 0.00 0.00 0.00 89 1016.6
20260506125005 40 298 0.0 0.0 0.00 0.00 0.00 88 1015.2
20260506124920 41 298 0.0 0.0 0.00 0.00 0.00 88 1016.6
20260506124513 40 298 0.0 0.0 0.00 0.00 0.00 88 1015.2
20260506124420 41 298 0.0 0.0 0.00 0.00 0.00 88 1016.6
20260506124005 40 298 0.0 0.0 0.00 0.00 0.00 88 1015.2
20260506123918 41 298 0.0 0.0 0.00 0.00 0.00 89 1016.6
20260506123508 40 298 0.0 0.0 0.00 0.00 0.00 88 1015.2
20260506123417 41 298 0.0 0.0 0.00 0.00 0.00 89 1016.7
20260506123010 41 298 0.0 0.0 0.00 0.00 0.00 88 1015.2
20260506122918 41 298 0.0 0.0 0.00 0.00 0.00 88 1016.6
20260506122643 41 298 0.0 0.0 0.00 0.00 0.00 88 1016.6
20260506122505 41 298 0.0 0.0 0.00 0.00 0.00 87 1015.2
20260506122136 41 298 0.0 0.0 0.00 0.00 0.00 88 1016.7
20260506122011 41 298 0.0 0.0 0.00 0.00 0.00 87 1015.2
20260506121527 41 298 0.0 0.0 0.00 0.00 0.00 86 1015.2
20260506121414 41 298 0.0 0.0 0.00 0.00 0.00 86 1016.7
20260506121007 41 298 0.0 0.0 0.00 0.00 0.00 86 1015.2
20260506120913 41 298 0.0 0.0 0.00 0.00 0.00 87 1016.7
20260506120506 41 298 0.0 0.0 0.00 0.00 0.00 86 1015.3
20260506120414 41 298 0.0 0.0 0.00 0.00 0.00 87 1016.7
20260506120010 41 298 0.0 0.0 0.00 0.00 0.00 87 1015.2
20260506115914 41 298 0.0 0.0 0.00 0.00 0.00 87 1016.7
20260506115504 41 298 0.0 0.0 0.00 0.00 0.00 88 1015.3
20260506115413 42 298 0.0 0.0 0.00 0.00 0.00 88 1016.7
20260506115002 41 298 0.0 0.0 0.00 0.00 0.00 87 1015.3
20260506114914 42 298 0.0 0.0 0.00 0.00 0.00 87 1016.7
20260506114513 41 298 0.0 0.0 0.00 0.00 0.00 86 1015.2
20260506114414 42 298 0.0 0.0 0.00 0.00 0.00 87 1016.8
20260506114010 41 298 0.0 0.0 0.00 0.00 0.00 87 1015.3
20260506113506 41 298 0.0 0.0 0.00 0.00 0.00 86 1015.3
20260506113411 42 298 0.0 0.0 0.00 0.00 0.00 86 1016.7
20260506113129 42 298 0.0 0.0 0.00 0.00 0.00 87 1016.8
20260506113028 41 298 0.0 0.0 0.00 0.00 0.00 87 1015.3
20260506112507 41 298 0.0 0.0 0.00 0.00 0.00 86 1015.3
20260506112357 42 298 0.0 0.0 0.00 0.00 0.00 87 1016.7
20260506112006 41 298 0.0 0.0 0.00 0.00 0.00 86 1015.3
20260506111851 42 298 0.0 0.0 0.00 0.00 0.00 87 1016.8
20260506111519 41 298 0.0 0.0 0.00 0.00 0.00 86 1015.3
20260506111345 42 298 0.0 0.0 0.00 0.00 0.00 86 1016.7
20260506111010 41 298 0.0 0.0 0.00 0.00 0.00 86 1015.3
20260506110839 42 298 0.0 0.0 0.00 0.00 0.00 86 1016.8
20260506110507 42 298 0.0 0.0 0.00 0.00 0.00 86 1015.3
20260506110333 42 298 0.0 0.0 0.00 0.00 0.00 86 1016.8
20260506110016 42 298 0.0 0.0 0.00 0.00 0.00 85 1015.3
20260506105827 42 298 0.0 0.0 0.00 0.00 0.00 85 1016.8
20260506105508 42 298 0.0 0.0 0.00 0.00 0.00 85 1015.3
20260506105320 42 298 0.0 0.0 0.00 0.00 0.00 85 1016.7
20260506105009 42 298 0.0 0.0 0.00 0.00 0.00 84 1015.3
20260506104815 42 298 0.0 0.0 0.00 0.00 0.00 85 1016.7
20260506104524 42 298 0.0 0.0 0.00 0.00 0.00 84 1015.3
20260506104309 42 298 0.0 0.0 0.00 0.00 0.00 84 1016.6
20260506104002 42 298 0.0 0.0 0.00 0.00 0.00 83 1015.2
20260506103803 42 298 0.0 0.0 0.00 0.00 0.00 84 1016.7
20260506103504 42 298 0.0 0.0 0.00 0.00 0.00 82 1015.2
20260506103257 42 298 0.0 0.0 0.00 0.00 0.00 84 1016.7
20260506103011 42 298 0.0 0.0 0.00 0.00 0.00 83 1015.2
20260506102751 42 298 0.0 0.0 0.00 0.00 0.00 83 1016.8
20260506102504 42 298 0.0 0.0 0.00 0.00 0.00 82 1015.2
20260506102245 42 298 0.0 0.0 0.00 0.00 0.00 81 1016.7
20260506102002 42 298 0.0 0.0 0.00 0.00 0.00 80 1015.2
20260506101739 42 298 0.0 0.0 0.00 0.00 0.00 81 1016.7
20260506101502 42 298 0.0 0.0 0.00 0.00 0.00 80 1015.2
20260506101233 42 298 0.0 0.0 0.00 0.00 0.00 81 1016.6
20260506101006 42 298 0.0 0.0 0.00 0.00 0.00 80 1015.2
20260506100727 42 298 0.0 0.0 0.00 0.00 0.00 81 1016.6
20260506100504 42 298 0.0 0.0 0.00 0.00 0.00 81 1015.2
20260506100442 42 298 0.0 0.0 0.00 0.00 0.00 81 1016.7
20260506100008 42 298 0.0 0.0 0.00 0.00 0.00 80 1015.2
20260506095937 42 298 0.0 0.0 0.00 0.00 0.00 81 1016.7
20260506095505 42 298 0.0 0.0 0.00 0.00 0.00 80 1015.2
20260506095209 42 298 0.0 0.0 0.00 0.00 0.00 80 1016.6
20260506095004 42 298 0.0 0.0 0.00 0.00 0.00 80 1015.2
20260506094703 42 298 0.0 0.0 0.00 0.00 0.00 80 1016.7
20260506094506 42 298 0.0 0.0 0.00 0.00 0.00 80 1015.2
20260506094157 42 298 0.0 0.0 0.00 0.00 0.00 80 1016.7
20260506094003 42 298 0.0 0.0 0.00 0.00 0.00 79 1015.2
20260506093651 42 298 0.0 0.0 0.00 0.00 0.00 80 1016.7
20260506093503 42 298 0.0 0.0 0.00 0.00 0.00 80 1015.2
20260506093145 43 298 0.0 0.0 0.00 0.00 0.00 81 1016.7
20260506093014 42 298 0.0 0.0 0.00 0.00 0.00 81 1015.2
20260506092639 43 298 0.0 0.0 0.00 0.00 0.00 81 1016.7
20260506092503 43 298 0.0 0.0 0.00 0.00 0.00 81 1015.2
20260506092133 43 298 0.0 0.0 0.00 0.00 0.00 81 1016.7
20260506092003 43 298 0.0 0.0 0.00 0.00 0.00 81 1015.2
20260506091627 43 298 0.0 0.0 0.00 0.00 0.00 81 1016.6
20260506091518 43 298 0.0 0.0 0.00 0.00 0.00 81 1015.2
20260506091122 43 298 0.0 0.0 0.00 0.00 0.00 82 1016.6
20260506091005 43 298 0.0 0.0 0.00 0.00 0.00 81 1015.2
20260506090615 43 298 0.0 0.0 0.00 0.00 0.00 81 1016.6
20260506090503 43 298 0.0 0.0 0.00 0.00 0.00 81 1015.1
20260506090109 44 298 0.0 0.0 0.00 0.00 0.00 81 1016.5
20260506090006 43 298 0.0 0.0 0.00 0.00 0.00 80 1015.1
20260506085603 44 298 0.0 0.0 0.00 0.00 0.00 81 1016.6
20260506085504 43 298 0.0 0.0 0.00 0.00 0.00 80 1015.0
20260506085057 44 298 0.0 0.0 0.00 0.00 0.00 80 1016.6
20260506085002 43 298 0.0 0.0 0.00 0.00 0.00 79 1015.1
20260506084551 44 298 0.0 0.0 0.00 0.00 0.00 80 1016.6
20260506084504 43 298 0.0 0.0 0.00 0.00 0.00 80 1015.0
20260506084045 44 298 0.0 0.0 0.00 0.00 0.00 80 1016.5
20260506084004 43 298 0.0 0.0 0.00 0.00 0.00 79 1015.0
20260506083539 44 298 0.0 0.0 0.00 0.00 0.00 80 1016.5
20260506083504 44 298 0.0 0.0 0.00 0.00 0.00 79 1015.1
20260506083258 44 298 0.0 0.0 0.00 0.00 0.00 80 1016.6
20260506083007 44 298 0.0 0.0 0.00 0.00 0.00 79 1015.1
20260506082527 44 298 0.0 0.0 0.00 0.00 0.00 79 1016.5
20260506082504 44 298 0.0 0.0 0.00 0.00 0.00 79 1015.1
20260506082021 44 298 0.0 0.0 0.00 0.00 0.00 79 1016.6
20260506082005 44 298 0.0 0.0 0.00 0.00 0.00 79 1015.1
20260506081515 44 298 0.0 0.0 0.00 0.00 0.00 79 1016.6
20260506081503 44 298 0.0 0.0 0.00 0.00 0.00 78 1015.2
20260506081009 44 298 0.0 0.0 0.00 0.00 0.00 78 1016.6
20260506081005 44 298 0.0 0.0 0.00 0.00 0.00 77 1015.2
20260506080506 44 298 0.0 0.0 0.00 0.00 0.00 78 1015.3
20260506080503 44 298 0.0 0.0 0.00 0.00 0.00 78 1016.6
20260506073503 45 298 0.0 0.0 0.00 0.00 0.00 76 1015.3
20260506073427 45 298 0.0 0.0 0.00 0.00 0.00 77 1016.7
20260506073006 45 298 0.0 0.0 0.00 0.00 0.00 76 1015.3
20260506072921 45 298 0.0 0.0 0.00 0.00 0.00 76 1016.8
20260506072506 45 298 0.0 0.0 0.00 0.00 0.00 75 1015.3
20260506072415 46 298 0.0 0.0 0.00 0.00 0.00 75 1016.7
20260506072003 45 298 0.0 0.0 0.00 0.00 0.00 75 1015.3
20260506071909 46 298 0.0 0.0 0.00 0.00 0.00 75 1016.8
20260506071511 45 298 0.0 0.0 0.00 0.00 0.00 73 1015.3
20260506071403 46 298 0.0 0.0 0.00 0.00 0.00 74 1016.8
20260506071003 46 298 0.0 0.0 0.00 0.00 0.00 73 1015.4
20260506070858 46 298 0.0 0.0 0.00 0.00 0.00 73 1016.8
20260506070504 46 298 0.0 0.0 0.00 0.00 0.00 73 1015.3
20260506070352 46 298 0.0 0.0 0.00 0.00 0.00 74 1016.8
20260506062502 48 298 0.0 0.0 0.00 0.00 0.00 70 1015.2
20260506062003 48 298 0.0 0.0 0.00 0.00 0.00 69 1015.2
20260506061850 48 298 0.0 0.0 0.00 0.00 0.00 69 1016.5
20260506061508 48 298 0.0 0.0 0.00 0.00 0.00 70 1015.1
20260506061343 49 298 0.0 0.0 0.00 0.00 0.00 70 1016.5
20260506061003 48 298 0.0 0.0 0.00 0.00 0.00 70 1015.2
20260506060837 49 298 0.0 0.0 0.00 0.00 0.00 70 1016.5
20260506060504 48 298 0.0 0.0 0.00 0.00 0.00 70 1015.2
20260506060331 49 298 0.0 0.0 0.00 0.00 0.00 70 1016.6
20260506051005 51 298 0.0 0.0 0.00 0.00 0.00 66 1015.2
20260506050801 51 298 0.0 0.0 0.00 0.00 0.00 67 1016.7
20260506050506 51 298 0.0 0.0 0.00 0.00 0.00 66 1015.1
20260506050258 52 298 0.0 0.0 0.00 0.00 0.00 66 1016.6
20260506045008 52 298 0.0 0.0 0.00 0.00 0.00 63 1015.1
20260506044756 52 298 0.0 0.0 0.00 0.00 0.00 64 1016.4
20260506044521 52 298 0.0 0.0 0.00 0.00 0.00 63 1015.1
20260506044253 53 298 0.0 0.0 0.00 0.00 0.00 63 1016.4
20260506044004 52 298 0.0 0.0 0.00 0.00 0.00 62 1015.1
20260506043752 53 298 0.0 0.0 0.00 0.00 0.00 62 1016.5
20260506043504 53 298 0.0 0.0 0.00 0.00 0.00 61 1015.2
20260506043250 53 298 0.0 0.0 0.00 0.00 0.00 61 1016.4
20260506043035 53 298 0.0 0.0 0.00 0.00 0.00 60 1015.2
20260506043008 53 298 0.0 0.0 0.00 0.00 0.00 60 1016.5
20260506042508 53 298 0.0 0.0 0.00 0.00 0.00 59 1015.2
20260506042246 54 298 0.0 0.0 0.00 0.00 0.00 58 1016.5
20260506042003 53 298 0.0 0.0 0.00 0.00 0.00 58 1015.0
20260506041746 54 298 0.0 0.0 0.00 0.00 0.00 57 1016.4
20260506041524 54 298 0.0 0.0 0.00 0.00 0.00 56 1015.0
20260506041245 54 298 0.0 0.0 0.00 0.00 0.00 58 1016.4
20260506041008 54 298 0.0 0.0 0.00 0.00 0.00 57 1015.0
20260506040744 54 298 0.0 0.0 0.00 0.00 0.00 57 1016.3
20260506040509 54 298 0.0 0.0 0.00 0.00 0.00 56 1014.9
20260506040243 55 298 0.0 0.0 0.00 0.00 0.00 56 1016.4
20260506040020 54 298 0.0 0.0 0.00 0.00 0.00 54 1014.9
20260506035959 55 298 0.0 0.0 0.00 0.00 0.00 54 1016.3
20260506035506 55 298 0.0 0.0 0.00 0.00 0.00 54 1014.9
20260506035231 55 298 0.0 0.0 0.00 0.00 0.00 54 1016.3
20260506035011 55 298 0.0 0.0 0.00 0.00 0.00 54 1014.9
20260506034725 56 298 0.0 0.0 0.00 0.00 0.00 54 1016.3
20260506034528 55 298 0.0 0.0 0.00 0.00 0.00 53 1014.9
20260506034220 56 298 0.0 0.0 0.00 0.00 0.00 53 1016.1
20260506034002 56 298 0.0 0.0 0.00 0.00 0.00 52 1014.7
20260506033934 57 298 0.0 0.0 0.00 0.00 0.00 53 1016.0
20260506033506 57 298 0.0 0.0 0.00 0.00 0.00 52 1014.6
20260506033207 58 298 0.0 0.0 0.00 0.00 0.00 52 1016.0
20260506033018 57 298 0.0 0.0 0.00 0.00 0.00 51 1014.4
20260506032701 58 298 0.0 0.0 0.00 0.00 0.00 51 1016.0
20260506032504 58 298 0.0 0.0 0.00 0.00 0.00 51 1014.4
20260506032155 59 298 0.0 0.0 0.00 0.00 0.00 51 1015.9
20260506032009 59 298 0.0 0.0 0.00 0.00 0.00 49 1014.3
20260506031916 60 298 0.0 0.0 0.00 0.00 0.00 50 1016.0
20260506031520 59 298 0.0 0.0 0.00 0.00 0.00 49 1014.3
20260506031143 60 298 0.0 0.0 0.00 0.00 0.00 48 1015.9
20260506031009 60 298 0.0 0.0 0.00 0.00 0.00 47 1014.3
20260506030637 61 298 0.0 0.0 0.00 0.00 0.00 47 1016.0
20260506030505 61 298 0.0 0.0 0.00 0.00 0.00 47 1014.3
20260506030131 62 298 0.0 0.0 0.00 0.00 0.00 47 1016.0
20260506030028 61 298 0.0 0.0 0.00 0.00 0.00 46 1014.3
20260506025625 62 298 0.0 0.0 0.00 0.00 0.00 44 1015.9
20260506025508 62 298 0.0 0.0 0.00 0.00 0.00 43 1014.3
20260506025346 63 298 0.0 0.0 0.00 0.00 0.00 43 1015.9
20260506025003 63 298 0.0 0.0 0.00 0.00 0.00 43 1014.2
20260506024613 64 297 0.0 0.0 0.00 0.00 0.00 42 1015.9
20260506024537 64 297 0.0 1.0 0.00 0.00 0.00 41 1014.2
20260506024107 65 297 0.0 2.0 0.00 0.00 0.00 40 1015.8
20260506024012 64 297 0.0 2.0 0.00 0.00 0.00 39 1014.2
20260506023601 65 297 0.0 2.0 0.00 0.00 0.00 40 1015.8
20260506023513 65 297 0.0 3.0 0.00 0.00 0.00 39 1014.2
20260506023054 66 297 0.0 3.0 0.00 0.00 0.00 39 1015.8
20260506023018 66 297 0.0 3.0 0.00 0.00 0.00 38 1014.2
20260506022548 66 298 0.0 3.0 0.00 0.00 0.00 37 1015.7
20260506022511 66 298 0.0 3.0 0.00 0.00 0.00 38 1014.1
20260506022050 67 297 1.0 4.0 0.00 0.00 0.00 38 1015.8
20260506022007 66 297 0.0 4.0 0.00 0.00 0.00 38 1014.2
20260506021547 67 297 1.0 4.0 0.00 0.00 0.00 35 1015.8
20260506021518 66 297 1.0 4.0 0.00 0.00 0.00 35 1014.2
20260506021046 67 305 1.0 3.0 0.00 0.00 0.00 35 1015.8
20260506021005 67 311 0.0 3.0 0.00 0.00 0.00 35 1014.2
20260506020806 67 311 1.0 5.0 0.00 0.00 0.00 35 1015.9
20260506020504 67 311 0.0 5.0 0.00 0.00 0.00 35 1014.1
20260506020045 67 316 2.0 5.0 0.00 0.00 0.00 34 1015.8
20260506020024 67 316 0.0 5.0 0.00 0.00 0.00 34 1014.1
20260506015543 68 313 2.0 6.0 0.00 0.00 0.00 34 1015.8
20260506015508 67 311 1.0 6.0 0.00 0.00 0.00 33 1014.1
20260506015044 68 246 2.0 6.0 0.00 0.00 0.00 34 1015.8
20260506015009 67 246 2.0 6.0 0.00 0.00 0.00 33 1014.1
20260506014544 68 256 2.0 4.0 0.00 0.00 0.00 33 1015.8
20260506014525 68 272 1.0 4.0 0.00 0.00 0.00 33 1014.1
20260506014042 68 244 2.0 7.0 0.00 0.00 0.00 33 1015.7
20260506014012 68 242 2.0 7.0 0.00 0.00 0.00 33 1014.1
20260506013540 68 283 2.0 8.0 0.00 0.00 0.00 32 1015.8
20260506013506 68 263 3.0 8.0 0.00 0.00 0.00 32 1014.1
20260506013303 69 325 2.0 8.0 0.00 0.00 0.00 33 1015.7
20260506013025 68 328 2.0 8.0 0.00 0.00 0.00 32 1014.1
20260506012802 69 285 2.0 6.0 0.00 0.00 0.00 33 1015.7
20260506012510 68 285 1.0 6.0 0.00 0.00 0.00 32 1014.1
20260506012039 69 232 3.0 8.0 0.00 0.00 0.00 32 1015.8
20260506012007 68 232 2.0 8.0 0.00 0.00 0.00 32 1014.1
20260506011539 69 240 2.0 8.0 0.00 0.00 0.00 32 1015.7
20260506011522 68 301 2.0 8.0 0.00 0.00 0.00 32 1014.1
20260506011039 69 276 3.0 9.0 0.00 0.00 0.00 32 1015.7
20260506011013 68 236 2.0 9.0 0.00 0.00 0.00 31 1014.1
20260506010502 69 245 4.0 9.0 0.00 0.00 0.00 31 1014.1
20260506010006 69 243 1.0 8.0 0.00 0.00 0.00 31 1014.1
20260506005536 70 239 3.0 8.0 0.00 0.00 0.00 31 1015.7
20260506005504 69 279 1.0 8.0 0.00 0.00 0.00 30 1014.1
20260506005301 70 217 3.0 8.0 0.00 0.00 0.00 30 1015.8
20260506005005 70 298 3.0 8.0 0.00 0.00 0.00 29 1014.2
20260506004527 71 265 2.0 8.0 0.00 0.00 0.00 29 1015.8
20260506004506 70 265 1.0 8.0 0.00 0.00 0.00 29 1014.2
20260506004021 71 228 2.0 8.0 0.00 0.00 0.00 30 1015.7
20260506004003 70 271 2.0 8.0 0.00 0.00 0.00 29 1014.1
20260506003515 71 236 2.0 5.0 0.00 0.00 0.00 30 1015.8
20260506003503 70 236 2.0 5.0 0.00 0.00 0.00 29 1014.1
20260506003233 71 244 2.0 8.0 0.00 0.00 0.00 30 1015.8
20260506003009 71 244 1.0 8.0 0.00 0.00 0.00 29 1014.2
20260506002726 71 115 2.0 8.0 0.00 0.00 0.00 29 1015.8
20260506002502 70 115 1.0 8.0 0.00 0.00 0.00 29 1014.2
20260506002003 70 177 0.0 8.0 0.00 0.00 0.00 30 1014.2
20260506001957 70 176 2.0 8.0 0.00 0.00 0.00 30 1015.9
20260506001511 70 219 1.0 7.0 0.00 0.00 0.00 28 1014.2
20260506001451 70 316 1.0 7.0 0.00 0.00 0.00 29 1015.8
20260506001003 69 101 1.0 4.0 0.00 0.00 0.00 29 1014.2
20260506000945 70 101 1.0 4.0 0.00 0.00 0.00 30 1015.8
20260506000503 69 137 0.0 8.0 0.00 0.00 0.00 31 1014.3
20260506000439 69 137 2.0 8.0 0.00 0.00 0.00 29 1015.9
20260506000004 69 313 2.0 8.0 0.00 0.00 0.00 28 1014.4
20260505235932 69 313 2.0 8.0 0.00 0.00 0.00 29 1015.9
20260505235503 69 223 2.0 8.0 0.00 0.00 0.00 28 1014.4
20260505235426 69 223 3.0 8.0 0.00 0.00 0.00 28 1015.9
20260505235002 69 243 3.0 8.0 0.00 0.00 0.00 27 1014.4
20260505234920 69 227 2.0 8.0 0.00 0.00 0.00 28 1016.0
20260505234504 68 277 2.0 11.0 0.00 0.00 0.00 27 1014.4
20260505234414 69 271 4.0 11.0 0.00 0.00 0.00 28 1016.1
20260505234129 69 283 4.0 11.0 0.00 0.00 0.00 27 1016.1
20260505234004 68 227 3.0 11.0 0.00 0.00 0.00 26 1014.5
20260505233503 69 235 3.0 11.0 0.00 0.00 0.00 26 1014.6
20260505233407 69 243 2.0 8.0 0.00 0.00 0.00 27 1016.1
20260505233131 69 271 2.0 8.0 0.00 0.00 0.00 27 1016.3
20260505233003 69 109 2.0 8.0 0.00 0.00 0.00 26 1014.6
20260505232503 69 287 2.0 8.0 0.00 0.00 0.00 27 1014.7
20260505232407 69 115 2.0 8.0 0.00 0.00 0.00 27 1016.3
20260505232003 69 351 2.0 8.0 0.00 0.00 0.00 27 1014.8
20260505231907 69 279 2.0 8.0 0.00 0.00 0.00 27 1016.3
20260505231503 69 209 2.0 9.0 0.00 0.00 0.00 27 1014.7
20260505231406 69 247 2.0 9.0 0.00 0.00 0.00 27 1016.3
20260505231003 69 206 1.0 9.0 0.00 0.00 0.00 26 1014.7
20260505230907 69 306 2.0 9.0 0.00 0.00 0.00 26 1016.3
20260505230504 68 244 2.0 8.0 0.00 0.00 0.00 27 1014.8
20260505230408 69 207 2.0 7.0 0.00 0.00 0.00 28 1016.4
20260505230013 68 312 2.0 7.0 0.00 0.00 0.00 27 1014.8
20260505225907 69 296 1.0 7.0 0.00 0.00 0.00 27 1016.4
20260505225634 68 269 2.0 8.0 0.00 0.00 0.00 27 1016.4
20260505225504 68 99 0.0 8.0 0.00 0.00 0.00 27 1014.7
20260505225004 68 209 1.0 12.0 0.00 0.00 0.00 27 1014.7
20260505224907 69 306 4.0 12.0 0.00 0.00 0.00 28 1016.4
20260505224516 68 248 2.0 12.0 0.00 0.00 0.00 25 1014.8
20260505224401 68 217 4.0 12.0 0.00 0.00 0.00 26 1016.4
20260505224107 69 266 3.0 10.0 0.00 0.00 0.00 26 1016.5
20260505224002 68 298 4.0 12.0 0.00 0.00 0.00 26 1014.9
20260505223610 69 217 3.0 8.0 0.00 0.00 0.00 27 1016.5
20260505223502 68 227 1.0 8.0 0.00 0.00 0.00 27 1014.9
20260505223108 69 276 3.0 9.0 0.00 0.00 0.00 27 1016.6
20260505223003 68 131 1.0 9.0 0.00 0.00 0.00 27 1015.0
20260505222609 69 261 3.0 9.0 0.00 0.00 0.00 26 1016.6
20260505222502 68 313 2.0 9.0 0.00 0.00 0.00 27 1015.0
20260505222002 68 225 3.0 8.0 0.00 0.00 0.00 25 1015.0
20260505221847 69 279 2.0 8.0 0.00 0.00 0.00 25 1016.7
20260505221508 68 112 1.0 9.0 0.00 0.00 0.00 26 1015.0
20260505221348 69 316 3.0 9.0 0.00 0.00 0.00 26 1016.7
20260505221003 68 302 3.0 10.0 0.00 0.00 0.00 25 1015.0
20260505220847 69 269 3.0 10.0 0.00 0.00 0.00 26 1016.7
20260505220502 69 118 1.0 10.0 0.00 0.00 0.00 25 1015.1
20260505220347 69 148 3.0 10.0 0.00 0.00 0.00 25 1016.8
20260505220111 69 153 2.0 9.0 0.00 0.00 0.00 28 1016.7
20260505220006 69 331 2.0 9.0 0.00 0.00 0.00 27 1015.0
20260505215503 68 282 2.0 9.0 0.00 0.00 0.00 26 1015.1
20260505215347 69 217 3.0 9.0 0.00 0.00 0.00 28 1016.7
20260505215006 68 154 2.0 9.0 0.00 0.00 0.00 28 1015.2
20260505214846 69 306 3.0 9.0 0.00 0.00 0.00 29 1016.8
20260505214503 68 306 3.0 12.0 0.00 0.00 0.00 29 1015.2
20260505214347 69 259 4.0 12.0 0.00 0.00 0.00 30 1016.8
20260505214003 68 220 4.0 12.0 0.00 0.00 0.00 29 1015.2
20260505213847 69 232 3.0 12.0 0.00 0.00 0.00 30 1016.9
20260505213503 68 288 3.0 8.0 0.00 0.00 0.00 31 1015.3
20260505213347 68 244 2.0 7.0 0.00 0.00 0.00 32 1016.8
20260505213022 67 280 2.0 14.0 0.00 0.00 0.00 30 1015.3
20260505212847 68 284 4.0 14.0 0.00 0.00 0.00 30 1016.9
20260505212503 67 246 4.0 14.0 0.00 0.00 0.00 29 1015.4
20260505212345 68 273 5.0 14.0 0.00 0.00 0.00 29 1016.9
20260505212003 68 238 2.0 10.0 0.00 0.00 0.00 30 1015.4
20260505211845 68 312 4.0 10.0 0.00 0.00 0.00 30 1017.1
20260505211507 68 277 5.0 10.0 0.00 0.00 0.00 29 1015.5
20260505211345 69 238 3.0 10.0 0.00 0.00 0.00 28 1017.1
20260505211003 69 186 2.0 8.0 0.00 0.00 0.00 28 1015.3
20260505210844 70 292 2.0 8.0 0.00 0.00 0.00 29 1017.1
20260505210505 69 109 2.0 10.0 0.00 0.00 0.00 30 1015.5
20260505210341 70 67 2.0 10.0 0.00 0.00 0.00 29 1017.1
20260505210010 69 279 2.0 12.0 0.00 0.00 0.00 28 1015.5
20260505205840 69 56 3.0 12.0 0.00 0.00 0.00 28 1017.4
20260505205502 69 208 1.0 12.0 0.00 0.00 0.00 29 1015.6
20260505205341 69 282 3.0 12.0 0.00 0.00 0.00 28 1017.3
20260505205058 69 144 3.0 11.0 0.00 0.00 0.00 29 1017.2
20260505205004 69 259 2.0 11.0 0.00 0.00 0.00 30 1015.6
20260505204511 69 213 1.0 8.0 0.00 0.00 0.00 30 1015.7
20260505204341 69 215 2.0 8.0 0.00 0.00 0.00 30 1017.4
20260505204003 68 281 2.0 8.0 0.00 0.00 0.00 29 1015.7
20260505203841 69 222 3.0 8.0 0.00 0.00 0.00 30 1017.3
20260505203503 68 269 4.0 8.0 0.00 0.00 0.00 31 1015.7
20260505203339 69 241 3.0 7.0 0.00 0.00 0.00 33 1017.3
20260505203012 69 189 4.0 7.0 0.00 0.00 0.00 31 1015.7
20260505202838 69 260 2.0 9.0 0.00 0.00 0.00 32 1017.3
20260505202504 69 169 1.0 9.0 0.00 0.00 0.00 32 1015.7
20260505202339 69 139 3.0 12.0 0.00 0.00 0.00 35 1017.2
20260505202009 68 81 3.0 12.0 0.00 0.00 0.00 32 1015.5
20260505201837 69 314 4.0 12.0 0.00 0.00 0.00 33 1017.4
20260505201511 68 273 3.0 12.0 0.00 0.00 0.00 32 1015.6
20260505201335 69 200 3.0 12.0 0.00 0.00 0.00 32 1017.2
20260505201056 68 288 4.0 9.0 0.00 0.00 0.00 33 1017.2
20260505201003 68 244 4.0 12.0 0.00 0.00 0.00 33 1015.6
20260505200503 67 279 3.0 10.0 0.00 0.00 0.00 33 1015.6
20260505200335 68 286 4.0 10.0 0.00 0.00 0.00 33 1017.2
20260505200009 68 279 4.0 10.0 0.00 0.00 0.00 33 1015.7
20260505195835 68 259 2.0 10.0 0.00 0.00 0.00 32 1017.2
20260505195505 68 238 2.0 10.0 0.00 0.00 0.00 32 1015.7
20260505195332 69 192 2.0 9.0 0.00 0.00 0.00 32 1017.3
20260505195002 68 320 0.0 10.0 0.00 0.00 0.00 31 1015.7
20260505194833 68 292 3.0 10.0 0.00 0.00 0.00 33 1017.5
20260505194555 68 246 3.0 10.0 0.00 0.00 0.00 33 1017.2
20260505194512 67 286 4.0 10.0 0.00 0.00 0.00 32 1015.7
20260505194004 68 261 1.0 7.0 0.00 0.00 0.00 32 1015.7
20260505193825 68 221 2.0 7.0 0.00 0.00 0.00 32 1017.4
20260505193506 67 237 1.0 8.0 0.00 0.00 0.00 34 1015.8
20260505193317 67 136 3.0 12.0 0.00 0.00 0.00 35 1017.4
20260505193017 67 248 2.0 12.0 0.00 0.00 0.00 33 1015.8
20260505192812 67 206 3.0 12.0 0.00 0.00 0.00 33 1017.4
20260505192511 66 322 4.0 12.0 0.00 0.00 0.00 34 1015.8
20260505192306 67 230 4.0 11.0 0.00 0.00 0.00 36 1017.4
20260505192009 66 313 4.0 11.0 0.00 0.00 0.00 34 1015.8
20260505191800 67 246 3.0 11.0 0.00 0.00 0.00 34 1017.5
20260505191518 68 250 4.0 11.0 0.00 0.00 0.00 33 1016.0
20260505191254 69 279 2.0 8.0 0.00 0.00 0.00 34 1017.4
20260505191011 68 230 2.0 8.0 0.00 0.00 0.00 32 1015.8
20260505190748 69 252 1.0 7.0 0.00 0.00 0.00 33 1017.4
20260505190503 68 259 2.0 7.0 0.00 0.00 0.00 32 1016.0
20260505190241 68 118 1.0 7.0 0.00 0.00 0.00 36 1017.5
20260505190023 68 314 1.0 7.0 0.00 0.00 0.00 33 1015.9
20260505185736 68 330 1.0 7.0 0.00 0.00 0.00 35 1017.4
20260505185510 67 247 2.0 9.0 0.00 0.00 0.00 33 1015.8
20260505185230 68 192 1.0 9.0 0.00 0.00 0.00 38 1017.4
20260505185005 67 250 0.0 9.0 0.00 0.00 0.00 36 1015.8
20260505184724 67 279 2.0 9.0 0.00 0.00 0.00 34 1017.4
20260505184511 67 295 1.0 9.0 0.00 0.00 0.00 35 1016.0
20260505184218 67 309 2.0 9.0 0.00 0.00 0.00 36 1017.4
20260505184003 66 236 3.0 9.0 0.00 0.00 0.00 35 1015.9
20260505183712 66 106 2.0 9.0 0.00 0.00 0.00 38 1017.3
20260505183503 65 111 2.0 8.0 0.00 0.00 0.00 36 1016.0
20260505183206 65 91 1.0 8.0 0.00 0.00 0.00 37 1017.3
20260505183021 64 259 1.0 8.0 0.00 0.00 0.00 41 1016.0
20260505182701 64 246 2.0 7.0 0.00 0.00 0.00 39 1017.3